Meteo orario Abashevo

Oggi, 20 Giugno, Domenica

Tempo Temperatura Precipitazioni Vento Pressione Umidità
00:00 +18°C° 0 mm 2 m/s 764 mm Hg 79%
01:00 +18°C° 0 mm 2 m/s 764 mm Hg 82%
02:00 +17°C° 0 mm 2 m/s 764 mm Hg 84%
03:00 +17°C° 0 mm 2 m/s 764 mm Hg 86%
04:00 +18°C° 0 mm 2 m/s 764 mm Hg 83%
05:00 +19°C° 0 mm 2 m/s 764 mm Hg 79%
06:00 +21°C° 0 mm 2 m/s 764 mm Hg 76%
07:00 +23°C° 0 mm 2 m/s 764 mm Hg 71%
08:00 +25°C° 0 mm 2 m/s 764 mm Hg 66%
09:00 +27°C° 0 mm 2 m/s 764 mm Hg 58%
10:00 +28°C° 0 mm 2 m/s 764 mm Hg 55%
11:00 +29°C° 0 mm 2 m/s 764 mm Hg 52%
12:00 +30°C° 0 mm 2 m/s 764 mm Hg 49%
13:00 +30°C° 0 mm 2 m/s 763 mm Hg 48%
14:00 +30°C° 0 mm 2 m/s 763 mm Hg 47%
15:00 +31°C° 0 mm 2 m/s 763 mm Hg 46%
16:00 +30°C° 0 mm 2 m/s 763 mm Hg 51%
17:00 +30°C° 0 mm 2 m/s 762 mm Hg 55%
18:00 +30°C° 0 mm 1 m/s 762 mm Hg 59%
19:00 +28°C° 0 mm 1 m/s 762 mm Hg 64%
20:00 +26°C° 0 mm 1 m/s 763 mm Hg 68%
21:00 +24°C° 0 mm 1 m/s 763 mm Hg 73%
22:00 +23°C° 0 mm 1 m/s 763 mm Hg 75%
23:00 +23°C° 0 mm 1 m/s 763 mm Hg 77%

Domani, 21 Giugno, Lunedi

Tempo Temperatura Precipitazioni Vento Pressione Umidità
00:00 +22°C° 0 mm 1 m/s 763 mm Hg 79%
01:00 +22°C° 0 mm 1 m/s 763 mm Hg 81%
02:00 +21°C° 0 mm 1 m/s 763 mm Hg 82%
03:00 +21°C° 0 mm 1 m/s 763 mm Hg 84%
04:00 +22°C° 0 mm 1 m/s 763 mm Hg 81%
05:00 +23°C° 0 mm 1 m/s 764 mm Hg 77%
06:00 +24°C° 0 mm 1 m/s 764 mm Hg 74%
07:00 +26°C° 0 mm 1 m/s 764 mm Hg 69%
08:00 +27°C° 0 mm 1 m/s 764 mm Hg 65%
09:00 +29°C° 0 mm 1 m/s 764 mm Hg 60%
10:00 +29°C° 0 mm 1 m/s 764 mm Hg 56%
11:00 +30°C° 0 mm 2 m/s 764 mm Hg 53%
12:00 +31°C° 0 mm 2 m/s 763 mm Hg 50%
13:00 +31°C° 0 mm 2 m/s 763 mm Hg 48%
14:00 +32°C° 0 mm 1 m/s 763 mm Hg 46%
15:00 +32°C° 0 mm 1 m/s 763 mm Hg 44%
16:00 +31°C° 0 mm 1 m/s 763 mm Hg 49%
17:00 +31°C° 0 mm 1 m/s 763 mm Hg 54%
18:00 +30°C° 0 mm 2 m/s 762 mm Hg 58%
19:00 +29°C° 0 mm 1 m/s 763 mm Hg 60%
20:00 +27°C° 0 mm 1 m/s 763 mm Hg 61%
21:00 +25°C° 0 mm 1 m/s 763 mm Hg 62%
22:00 +25°C° 0 mm 1 m/s 763 mm Hg 64%
23:00 +24°C° 0 mm 1 m/s 763 mm Hg 67%

Dopodomani, 22 Giugno, Martedi

Tempo Temperatura Precipitazioni Vento Pressione Umidità
00:00 +24°C° 0 mm 1 m/s 763 mm Hg 69%
01:00 +24°C° 0 mm 1 m/s 763 mm Hg 71%
02:00 +23°C° 0 mm 1 m/s 763 mm Hg 72%
03:00 +23°C° 0 mm 1 m/s 763 mm Hg 74%
04:00 +24°C° 0 mm 1 m/s 763 mm Hg 72%
05:00 +25°C° 0 mm 1 m/s 763 mm Hg 70%
06:00 +26°C° 0 mm 1 m/s 763 mm Hg 68%
07:00 +27°C° 0 mm 1 m/s 763 mm Hg 63%
08:00 +28°C° 0 mm 1 m/s 763 mm Hg 59%
09:00 +30°C° 0 mm 1 m/s 763 mm Hg 55%
10:00 +31°C° 0 mm 1 m/s 763 mm Hg 52%
11:00 +32°C° 0 mm 1 m/s 763 mm Hg 48%
12:00 +31°C° 0 mm 0 m/s 763 mm Hg 45%
13:00 +33°C° 0 mm 1 m/s 763 mm Hg 44%
14:00 +33°C° 0 mm 1 m/s 763 mm Hg 43%
15:00 +34°C° 0 mm 2 m/s 763 mm Hg 42%
16:00 +34°C° 0 mm 2 m/s 763 mm Hg 47%
17:00 +32°C° 0 mm 1 m/s 762 mm Hg 52%
18:00 +32°C° 0 mm 1 m/s 762 mm Hg 57%
19:00 +30°C° 0 mm 1 m/s 762 mm Hg 59%
20:00 +28°C° 0 mm 1 m/s 762 mm Hg 61%
21:00 +27°C° 0 mm 1 m/s 763 mm Hg 63%
22:00 +24°C° 0 mm 0 m/s 763 mm Hg 63%
23:00 +24°C° 0 mm 0 m/s 762 mm Hg 64%

23 Giugno, Mercoledi

Tempo Temperatura Precipitazioni Vento Pressione Umidità
00:00 +23°C° 0 mm 0 m/s 762 mm Hg 64%
01:00 +23°C° 0 mm 0 m/s 763 mm Hg 65%
02:00 +22°C° 0 mm 0 m/s 763 mm Hg 67%
03:00 +22°C° 0 mm 0 m/s 763 mm Hg 68%
04:00 +23°C° 0 mm 0 m/s 763 mm Hg 67%
05:00 +24°C° 0 mm 0 m/s 763 mm Hg 66%
06:00 +25°C° 0 mm 0 m/s 763 mm Hg 65%
07:00 +26°C° 0 mm 0 m/s 763 mm Hg 61%
08:00 +27°C° 0 mm 0 m/s 763 mm Hg 57%
09:00 +31°C° 0 mm 1 m/s 763 mm Hg 53%
10:00 +32°C° 0 mm 1 m/s 763 mm Hg 50%
11:00 +33°C° 0 mm 1 m/s 763 mm Hg 46%
12:00 +34°C° 0 mm 2 m/s 763 mm Hg 43%
13:00 +35°C° 0 mm 2 m/s 762 mm Hg 41%
14:00 +35°C° 0 mm 2 m/s 762 mm Hg 39%
15:00 +35°C° 0 mm 2 m/s 762 mm Hg 37%
16:00 +35°C° 0 mm 2 m/s 762 mm Hg 42%
17:00 +33°C° 0 mm 1 m/s 762 mm Hg 46%
18:00 +33°C° 0 mm 1 m/s 761 mm Hg 51%
19:00 +30°C° 0 mm 2 m/s 762 mm Hg 57%
20:00 +28°C° 0 mm 2 m/s 762 mm Hg 63%
21:00 +26°C° 0 mm 2 m/s 762 mm Hg 68%
22:00 +26°C° 0 mm 2 m/s 762 mm Hg 68%
23:00 +25°C° 0 mm 1 m/s 762 mm Hg 68%

24 Giugno, Giovedi

Tempo Temperatura Precipitazioni Vento Pressione Umidità
00:00 +25°C° 0 mm 1 m/s 762 mm Hg 68%
01:00 +24°C° 0 mm 1 m/s 762 mm Hg 67%
02:00 +24°C° 0 mm 1 m/s 762 mm Hg 67%
03:00 +24°C° 0 mm 1 m/s 762 mm Hg 67%
04:00 +25°C° 0 mm 1 m/s 762 mm Hg 66%
05:00 +26°C° 0 mm 1 m/s 762 mm Hg 65%
06:00 +26°C° 0 mm 1 m/s 762 mm Hg 64%
07:00 +28°C° 0 mm 1 m/s 762 mm Hg 60%
08:00 +29°C° 0 mm 1 m/s 762 mm Hg 57%
09:00 +31°C° 0 mm 1 m/s 761 mm Hg 53%
10:00 +32°C° 0 mm 2 m/s 761 mm Hg 50%
11:00 +32°C° 0 mm 2 m/s 761 mm Hg 47%
12:00 +34°C° 0 mm 2 m/s 761 mm Hg 44%
13:00 +34°C° 0 mm 2 m/s 761 mm Hg 43%
14:00 +35°C° 0 mm 2 m/s 760 mm Hg 41%
15:00 +35°C° 0 mm 2 m/s 760 mm Hg 39%
16:00 +34°C° 0 mm 2 m/s 760 mm Hg 46%
17:00 +32°C° 0 mm 2 m/s 760 mm Hg 52%
18:00 +31°C° 0 mm 2 m/s 760 mm Hg 58%
19:00 +29°C° 0 mm 2 m/s 760 mm Hg 60%
20:00 +28°C° 0 mm 1 m/s 760 mm Hg 62%
21:00 +26°C° 0 mm 1 m/s 759 mm Hg 64%
22:00 +26°C° 0 mm 1 m/s 759 mm Hg 66%
23:00 +26°C° 0 mm 1 m/s 759 mm Hg 68%

25 Giugno, Venerdi

Tempo Temperatura Precipitazioni Vento Pressione Umidità
00:00 +25°C° 0 mm 1 m/s 759 mm Hg 69%
01:00 +25°C° 0 mm 1 m/s 759 mm Hg 71%
02:00 +25°C° 0 mm 1 m/s 759 mm Hg 73%
03:00 +24°C° 0 mm 2 m/s 759 mm Hg 75%
04:00 +25°C° 0 mm 2 m/s 759 mm Hg 74%
05:00 +26°C° 0 mm 2 m/s 759 mm Hg 73%
06:00 +27°C° 0 mm 2 m/s 759 mm Hg 73%
07:00 +29°C° 0 mm 2 m/s 759 mm Hg 67%
08:00 +30°C° 0 mm 2 m/s 758 mm Hg 62%
09:00 +32°C° 0 mm 2 m/s 758 mm Hg 57%
10:00 +34°C° 0 mm 2 m/s 758 mm Hg 53%
11:00 +34°C° 0 mm 2 m/s 758 mm Hg 49%
12:00 +35°C° 0 mm 3 m/s 758 mm Hg 45%
13:00 +36°C° 0 mm 2 m/s 758 mm Hg 43%
14:00 +36°C° 0 mm 2 m/s 757 mm Hg 41%
15:00 +36°C° 0 mm 2 m/s 757 mm Hg 39%
16:00 +35°C° 0 mm 3 m/s 757 mm Hg 46%
17:00 +33°C° 0 mm 4 m/s 757 mm Hg 54%
18:00 +32°C° 0 mm 4 m/s 757 mm Hg 62%
19:00 +29°C° 0.3 mm 3 m/s 757 mm Hg 61%
20:00 +26°C° 0.3 mm 3 m/s 757 mm Hg 59%
21:00 +24°C° 0.3 mm 2 m/s 757 mm Hg 58%
22:00 +24°C° 0 mm 2 m/s 757 mm Hg 60%
23:00 +24°C° 0 mm 2 m/s 757 mm Hg 62%
Mostrare altro

Abbiamo bisogno del tuo consenso

Meteoprog e i nostri fornitori di servizi possono memorizzare e accedere a dati personali come cookie, identificatori di dispositivi o altre tecnologie simili sul tuo dispositivo e possono elaborare tali dati per personalizzare i contenuti e gli annunci, nonché fornire funzionalità dei social media e analizzarne il traffico.

  • Archiviare e/o accedere alle informazioni sul tuo dispositivo

    Cookie, identificatori di dispositivi o altre informazioni possono essere memorizzati o resi accessibili sul tuo dispositivo per le finalità sopra indicate.

  • Annunci e contenuti personalizzati, misurazione di annunci e contenuti, approfondimenti sul pubblico e sviluppo di prodotti

    Gli annunci e i contenuti possono essere personalizzati in base a un profilo. È possibile aggiungere più dati per personalizzare meglio annunci e contenuti. È possibile misurare il rendimento degli annunci e dei contenuti. È possibile ricavare informazioni sul pubblico che ha visto gli annunci e i contenuti. Tali dati possono essere utilizzati per sviluppare o migliorare l'esperienza, i sistemi e il software dell'utente.

Cliccando su “Accetto”, acconsenti all'uso di cookie, identificatori di dispositivo, web beacon o altre tecnologie simili. Puoi modificare le impostazioni nel browser del tuo dispositivo.

Per determinati scopi, è possibile fare affidamento su interessi legali, piuttosto che sul consenso. Puoi approfondire questo argomento consultando la nostra Informativa sulla privacy e sui cookie.